,,Stat6,,Stat2,,Stat8,,Stat9,,Stat10,,Wind1,,Wind1,
time,status,PA1M_AVG,status,PR1M_SUM,status,RH1M_AVG,status,SR1M_AVG,status,TA1M_AVG,status,W1dAve1m,status,W1sAve1m,
2005-11-18, 00:00:00,VALID,917.353,VALID,0,VALID,100,VALID,-0.0169808,VALID,19.4049,VALID,156,VALID,0.35032,
2005-11-18, 00:01:00,VALID,917.356,VALID,0.2,VALID,100,VALID,-0.0849042,VALID,19.3887,VALID,161,VALID,0.139648,
2005-11-18, 00:02:00,VALID,917.344,VALID,0,VALID,100,VALID,-0.0169808,VALID,19.3823,VALID,148,VALID,0.273056,
2005-11-18, 00:03:00,VALID,917.347,VALID,0,VALID,100,VALID,-0.0849042,VALID,19.3624,VALID,202,VALID,0.633614,
2005-11-18, 00:04:00,VALID,917.352,VALID,0,VALID,100,VALID,0.0169808,VALID,19.3487,VALID,209,VALID,0.482922,
2005-11-18, 00:05:00,VALID,917.352,VALID,0,VALID,100,VALID,0.0849042,VALID,19.3418,VALID,196,VALID,0.39577,
2005-11-18, 00:06:00,VALID,917.354,VALID,0.2,VALID,100,VALID,0.0849042,VALID,19.3582,VALID,190,VALID,0.436773,
2005-11-18, 00:07:00,VALID,917.364,VALID,0,VALID,100,VALID,0.0679233,VALID,19.3385,VALID,175,VALID,0.28811,
2005-11-18, 00:08:00,VALID,917.355,VALID,0,VALID,100,VALID,0.0679233,VALID,19.3129,VALID,154,VALID,0.527344,
2005-11-18, 00:09:00,VALID,917.345,VALID,0,VALID,100,VALID,0.0849042,VALID,19.2772,VALID,133,VALID,0.383398,
2005-11-18, 00:10:00,VALID,917.337,VALID,0.2,VALID,100,VALID,0.0339617,VALID,19.2516,VALID,139,VALID,0.552455,
2005-11-18, 00:11:00,VALID,917.344,VALID,0,VALID,100,VALID,0.0679233,VALID,19.219,VALID,171,VALID,0.237424,
2005-11-18, 00:12:00,VALID,917.321,VALID,0,VALID,100,VALID,0.0679233,VALID,19.2061,VALID,171,VALID,0.441883,
2005-11-18, 00:13:00,VALID,917.33,VALID,0.2,VALID,100,VALID,0.0679233,VALID,19.1899,VALID,171,VALID,0.514323,
2005-11-18, 00:14:00,VALID,917.319,VALID,0,VALID,100,VALID,0.0509425,VALID,19.1576,VALID,151,VALID,0.55888,
2005-11-18, 00:15:00,VALID,917.31,VALID,0,VALID,100,VALID,0.0679233,VALID,19.1447,VALID,149,VALID,0.486662,
2005-11-18, 00:16:00,VALID,917.311,VALID,0,VALID,100,VALID,0.0509425,VALID,19.1447,VALID,149,VALID,0.735518,
2005-11-18, 00:17:00,VALID,917.3,VALID,0.2,VALID,100,VALID,0.0849042,VALID,19.1255,VALID,149,VALID,0.866257,
2005-11-18, 00:18:00,VALID,917.288,VALID,0,VALID,100,VALID,0.0339617,VALID,19.1131,VALID,149,VALID,0.74272,
2005-11-18, 00:19:00,VALID,917.282,VALID,0,VALID,100,VALID,-0.0169808,VALID,19.1133,VALID,145,VALID,0.575195,
2005-11-18, 00:20:00,VALID,917.272,VALID,0.2,VALID,100,VALID,-0.0509425,VALID,19.1113,VALID,142,VALID,0.798147,
2005-11-18, 00:21:00,VALID,917.257,VALID,0,VALID,100,VALID,-0.0679233,VALID,19.0845,VALID,135,VALID,0.968403,
2005-11-18, 00:22:00,VALID,917.258,VALID,0,VALID,100,VALID,-0.0169808,VALID,19.0949,VALID,139,VALID,0.990625,
2005-11-18, 00:23:00,VALID,917.253,VALID,0,VALID,100,VALID,-0.0509425,VALID,19.0885,VALID,135,VALID,0.853743,
2005-11-18, 00:24:00,VALID,917.237,VALID,0.2,VALID,100,VALID,-0.0509425,VALID,19.0947,VALID,133,VALID,1.09539,
2005-11-18, 00:25:00,VALID,917.234,VALID,0,VALID,100,VALID,-0.0169808,VALID,19.1108,VALID,137,VALID,0.832209,
2005-11-18, 00:26:00,VALID,917.22,VALID,0,VALID,100,VALID,-0.0169808,VALID,19.1267,VALID,135,VALID,0.772852,
2005-11-18, 00:27:00,VALID,917.207,VALID,0,VALID,100,VALID,-0.0849042,VALID,19.1402,VALID,128,VALID,0.680043,
2005-11-18, 00:28:00,VALID,917.198,VALID,0.2,VALID,100,VALID,-0.0509425,VALID,19.1367,VALID,132,VALID,1.08229,
2005-11-18, 00:29:00,VALID,917.176,VALID,0,VALID,100,VALID,-0.0339617,VALID,19.1531,VALID,136,VALID,0.932422,
2005-11-18, 00:30:00,VALID,917.165,VALID,0,VALID,100,VALID,0,VALID,19.1593,VALID,133,VALID,0.831287,
2005-11-18, 00:31:00,VALID,917.159,VALID,0,VALID,100,VALID,-0.0169808,VALID,19.1491,VALID,134,VALID,0.568314,
2005-11-18, 00:32:00,VALID,917.155,VALID,0.2,VALID,100,VALID,-0.0169808,VALID,19.1595,VALID,131,VALID,0.818182,
2005-11-18, 00:33:00,VALID,917.138,VALID,0,VALID,100,VALID,0,VALID,19.1531,VALID,126,VALID,0.787059,
2005-11-18, 00:34:00,VALID,917.139,VALID,0,VALID,100,VALID,0,VALID,19.1334,VALID,128,VALID,0.798549,
2005-11-18, 00:35:00,VALID,917.123,VALID,0,VALID,100,VALID,-0.0849042,VALID,19.1374,VALID,139,VALID,0.47202,
2005-11-18, 00:36:00,VALID,917.113,VALID,0.2,VALID,100,VALID,0,VALID,19.1267,VALID,140,VALID,0.224516,
2005-11-18, 00:37:00,VALID,917.12,VALID,0,VALID,100,VALID,-0.0339617,VALID,19.1133,VALID,140,VALID,0.24814,
2005-11-18, 00:38:00,VALID,917.102,VALID,0,VALID,100,VALID,0,VALID,19.1173,VALID,135,VALID,0.619978,
2005-11-18, 00:39:00,VALID,917.105,VALID,0,VALID,100,VALID,0,VALID,19.1074,VALID,117,VALID,0.605273,
2005-11-18, 00:40:00,VALID,917.095,VALID,0.2,VALID,100,VALID,0,VALID,19.0974,VALID,127,VALID,0.847957,
2005-11-18, 00:41:00,VALID,917.093,VALID,0,VALID,100,VALID,-0.0339617,VALID,19.1046,VALID,130,VALID,0.817264,
2005-11-18, 00:42:00,VALID,917.106,VALID,0,VALID,100,VALID,0,VALID,19.1016,VALID,126,VALID,0.801829,
2005-11-18, 00:43:00,VALID,917.099,VALID,0,VALID,100,VALID,-0.0339617,VALID,19.1011,VALID,118,VALID,1.02077,
2005-11-18, 00:44:00,VALID,917.08,VALID,0.2,VALID,100,VALID,0,VALID,19.1011,VALID,116,VALID,0.705035,
2005-11-18, 00:45:00,VALID,917.087,VALID,0,VALID,100,VALID,0,VALID,19.1014,VALID,123,VALID,0.451079,
2005-11-18, 00:46:00,VALID,917.069,VALID,0,VALID,100,VALID,-0.0339617,VALID,19.0914,VALID,103,VALID,1.07358,
2005-11-18, 00:47:00,VALID,917.063,VALID,0,VALID,100,VALID,-0.0169808,VALID,19.085,VALID,109,VALID,0.78343,
2005-11-18, 00:48:00,VALID,917.059,VALID,0,VALID,100,VALID,-0.0679233,VALID,19.0919,VALID,102,VALID,0.432546,
2005-11-18, 00:49:00,VALID,917.057,VALID,0.2,VALID,100,VALID,-0.0509425,VALID,19.0984,VALID,97,VALID,0.284961,
2005-11-18, 00:50:00,VALID,917.051,VALID,0,VALID,100,VALID,-0.0339617,VALID,19.0984,VALID,105,VALID,0.39897,
2005-11-18, 00:51:00,VALID,917.04,VALID,0,VALID,100,VALID,-0.0339617,VALID,19.0952,VALID,107,VALID,0.238467,
2005-11-18, 00:52:00,VALID,917.03,VALID,0,VALID,100,VALID,-0.0339617,VALID,19.0852,VALID,117,VALID,0.4758,
2005-11-18, 00:53:00,VALID,917.019,VALID,0,VALID,100,VALID,-0.0169808,VALID,19.0887,VALID,118,VALID,0.298735,
2005-11-18, 00:54:00,VALID,917.012,VALID,0,VALID,100,VALID,-0.0339617,VALID,19.0817,VALID,129,VALID,0.585227,
2005-11-18, 00:55:00,VALID,917.005,VALID,0.2,VALID,100,VALID,-0.0679233,VALID,19.0885,VALID,152,VALID,0.757431,
2005-11-18, 00:56:00,VALID,916.992,VALID,0,VALID,100,VALID,-0.0509425,VALID,19.0885,VALID,136,VALID,0.604106,
2005-11-18, 00:57:00,VALID,916.984,VALID,0,VALID,100,VALID,-0.0169808,VALID,19.1016,VALID,159,VALID,0.612926,
2005-11-18, 00:58:00,VALID,916.972,VALID,0,VALID,100,VALID,-0.0339617,VALID,19.1048,VALID,155,VALID,0.90346,
2005-11-18, 00:59:00,VALID,916.962,VALID,0,VALID,100,VALID,-0.0509425,VALID,19.0954,VALID,149,VALID,1.04707,
2005-11-18, 01:00:00,VALID,916.949,VALID,0,VALID,100,VALID,-0.0849042,VALID,19.0788,VALID,160,VALID,0.867188,
2005-11-18, 01:01:00,VALID,916.933,VALID,0,VALID,100,VALID,-0.0679233,VALID,19.0919,VALID,147,VALID,0.893056,
2005-11-18, 01:02:00,VALID,916.932,VALID,0,VALID,100,VALID,-0.0339617,VALID,19.0954,VALID,154,VALID,1.00208,
2005-11-18, 01:03:00,VALID,916.921,VALID,0.2,VALID,100,VALID,-0.0849042,VALID,19.1053,VALID,148,VALID,1.08158,
2005-11-18, 01:04:00,VALID,916.909,VALID,0,VALID,100,VALID,-0.0509425,VALID,19.1016,VALID,152,VALID,0.863839,
2005-11-18, 01:05:00,VALID,916.896,VALID,0,VALID,100,VALID,0.0169808,VALID,19.1066,VALID,149,VALID,0.943496,
2005-11-18, 01:06:00,VALID,916.893,VALID,0,VALID,100,VALID,0.0339617,VALID,19.1036,VALID,147,VALID,0.930069,
2005-11-18, 01:07:00,VALID,916.891,VALID,0,VALID,100,VALID,0.0339617,VALID,19.0967,VALID,146,VALID,0.747582,
2005-11-18, 01:08:00,VALID,916.894,VALID,0,VALID,100,VALID,0.0849042,VALID,19.1004,VALID,133,VALID,0.859557,
2005-11-18, 01:09:00,VALID,916.896,VALID,0,VALID,100,VALID,0.0509425,VALID,19.0937,VALID,141,VALID,0.931974,
2005-11-18, 01:10:00,VALID,916.908,VALID,0,VALID,100,VALID,0.0169808,VALID,19.0972,VALID,140,VALID,0.772711,
2005-11-18, 01:11:00,VALID,916.916,VALID,0,VALID,100,VALID,0.0849042,VALID,19.1103,VALID,167,VALID,0.492551,
2005-11-18, 01:12:00,VALID,916.926,VALID,0.2,VALID,100,VALID,0.0679233,VALID,19.1002,VALID,143,VALID,0.909299,
2005-11-18, 01:13:00,VALID,916.919,VALID,0,VALID,100,VALID,0.0339617,VALID,19.0969,VALID,139,VALID,0.653942,
2005-11-18, 01:14:00,VALID,916.925,VALID,0,VALID,100,VALID,0.0169808,VALID,19.1004,VALID,148,VALID,0.931504,
2005-11-18, 01:15:00,VALID,916.926,VALID,0,VALID,100,VALID,0.0679233,VALID,19.0997,VALID,137,VALID,0.735156,
2005-11-18, 01:16:00,VALID,916.936,VALID,0,VALID,100,VALID,0.0509425,VALID,19.1034,VALID,142,VALID,0.670015,
2005-11-18, 01:17:00,VALID,916.922,VALID,0,VALID,100,VALID,0.0679233,VALID,19.1071,VALID,144,VALID,0.562855,
2005-11-18, 01:18:00,VALID,916.94,VALID,0,VALID,100,VALID,0.0509425,VALID,19.1002,VALID,156,VALID,0.483203,
2005-11-18, 01:19:00,VALID,916.946,VALID,0,VALID,100,VALID,0.0339617,VALID,19.1009,VALID,144,VALID,0.872159,
2005-11-18, 01:20:00,VALID,916.922,VALID,0,VALID,100,VALID,-0.0849042,VALID,19.0949,VALID,156,VALID,0.657522,
2005-11-18, 01:21:00,VALID,916.936,VALID,0,VALID,100,VALID,-0.0509425,VALID,19.1081,VALID,163,VALID,0.367365,
2005-11-18, 01:22:00,VALID,916.933,VALID,0,VALID,100,VALID,-0.0509425,VALID,19.1014,VALID,148,VALID,0.904797,
2005-11-18, 01:23:00,VALID,916.921,VALID,0.2,VALID,100,VALID,-0.0169808,VALID,19.1011,VALID,158,VALID,0.847396,
2005-11-18, 01:24:00,VALID,916.91,VALID,0,VALID,100,VALID,-0.0509425,VALID,19.1113,VALID,153,VALID,0.714749,
2005-11-18, 01:25:00,VALID,916.893,VALID,0,VALID,100,VALID,-0.0509425,VALID,19.1044,VALID,163,VALID,0.64939,
2005-11-18, 01:26:00,VALID,916.884,VALID,0,VALID,100,VALID,-0.0339617,VALID,19.121,VALID,157,VALID,0.649148,
2005-11-18, 01:27:00,VALID,916.861,VALID,0,VALID,100,VALID,-0.0339617,VALID,19.1178,VALID,157,VALID,0.757813,
2005-11-18, 01:28:00,VALID,916.84,VALID,0,VALID,100,VALID,-0.0169808,VALID,19.1145,VALID,163,VALID,0.798177,
2005-11-18, 01:29:00,VALID,916.843,VALID,0,VALID,100,VALID,-0.0169808,VALID,19.0977,VALID,151,VALID,0.923018,
2005-11-18, 01:30:00,VALID,916.832,VALID,0,VALID,100,VALID,-0.0169808,VALID,19.1113,VALID,145,VALID,0.634014,
2005-11-18, 01:31:00,VALID,916.811,VALID,0,VALID,100,VALID,-0.0509425,VALID,19.1081,VALID,147,VALID,0.400981,
2005-11-18, 01:32:00,VALID,916.806,VALID,0,VALID,100,VALID,-0.0339617,VALID,19.0984,VALID,152,VALID,0.440104,
2005-11-18, 01:33:00,VALID,916.805,VALID,0,VALID,100,VALID,-0.0679233,VALID,19.0986,VALID,151,VALID,0.499455,
2005-11-18, 01:34:00,VALID,916.788,VALID,0,VALID,100,VALID,0,VALID,19.1046,VALID,141,VALID,0.72691,
2005-11-18, 01:35:00,VALID,916.772,VALID,0,VALID,100,VALID,0,VALID,19.0937,VALID,154,VALID,0.504616,
2005-11-18, 01:36:00,VALID,916.762,VALID,0,VALID,100,VALID,0.0169808,VALID,19.1007,VALID,152,VALID,0.802024,
2005-11-18, 01:37:00,VALID,916.741,VALID,0,VALID,100,VALID,0,VALID,19.1007,VALID,153,VALID,0.814787,
2005-11-18, 01:38:00,VALID,916.747,VALID,0,VALID,100,VALID,0.0169808,VALID,19.1036,VALID,150,VALID,0.770275,
2005-11-18, 01:39:00,VALID,916.732,VALID,0,VALID,100,VALID,0,VALID,19.1076,VALID,142,VALID,0.902344,
2005-11-18, 01:40:00,VALID,916.734,VALID,0.2,VALID,100,VALID,0,VALID,19.1108,VALID,143,VALID,0.918786,
2005-11-18, 01:41:00,VALID,916.721,VALID,0,VALID,100,VALID,-0.0169808,VALID,19.1041,VALID,149,VALID,0.931974,
2005-11-18, 01:42:00,VALID,916.724,VALID,0,VALID,100,VALID,0,VALID,19.1108,VALID,125,VALID,0.507994,
2005-11-18, 01:43:00,VALID,916.707,VALID,0,VALID,100,VALID,0.0169808,VALID,19.1002,VALID,158,VALID,0.640244,
2005-11-18, 01:44:00,VALID,916.707,VALID,0,VALID,100,VALID,0,VALID,19.094,VALID,157,VALID,0.762019,
2005-11-18, 01:45:00,VALID,916.7,VALID,0,VALID,100,VALID,0,VALID,19.1039,VALID,157,VALID,0.754836,
2005-11-18, 01:46:00,VALID,916.7,VALID,0,VALID,100,VALID,0.0169808,VALID,19.1041,VALID,152,VALID,0.808866,
2005-11-18, 01:47:00,VALID,916.697,VALID,0,VALID,100,VALID,0.0339617,VALID,19.0977,VALID,138,VALID,0.772049,
2005-11-18, 01:48:00,VALID,916.686,VALID,0,VALID,100,VALID,0.0339617,VALID,19.0972,VALID,141,VALID,0.771019,
2005-11-18, 01:49:00,VALID,916.676,VALID,0,VALID,100,VALID,-0.0169808,VALID,19.0947,VALID,155,VALID,1.07107,
2005-11-18, 01:50:00,VALID,916.671,VALID,0,VALID,100,VALID,-0.0849042,VALID,19.0989,VALID,155,VALID,1.12388,
2005-11-18, 01:51:00,VALID,916.66,VALID,0,VALID,100,VALID,-0.101885,VALID,19.0919,VALID,139,VALID,0.751116,
2005-11-18, 01:52:00,VALID,916.658,VALID,0,VALID,100,VALID,-0.101885,VALID,19.0993,VALID,138,VALID,0.741257,
2005-11-18, 01:53:00,VALID,916.653,VALID,0,VALID,100,VALID,-0.101885,VALID,19.1021,VALID,115,VALID,0.729651,
2005-11-18, 01:54:00,VALID,916.649,VALID,0,VALID,100,VALID,-0.101885,VALID,19.0924,VALID,133,VALID,0.512251,
2005-11-18, 01:55:00,VALID,916.642,VALID,0,VALID,100,VALID,-0.118866,VALID,19.0728,VALID,135,VALID,0.231105,
2005-11-18, 01:56:00,VALID,916.634,VALID,0,VALID,100,VALID,-0.101885,VALID,19.0758,VALID,135,VALID,0.176417,
2005-11-18, 01:57:00,VALID,916.629,VALID,0,VALID,100,VALID,-0.0849042,VALID,19.076,VALID,135,VALID,0.319602,
2005-11-18, 01:58:00,VALID,916.616,VALID,0,VALID,100,VALID,-0.101885,VALID,19.0827,VALID,135,VALID,0.0766715,
2005-11-18, 01:59:00,VALID,916.616,VALID,0.2,VALID,100,VALID,-0.0849042,VALID,19.0892,VALID,138,VALID,0.359193,
2005-11-18, 02:00:00,VALID,916.604,VALID,0,VALID,100,VALID,-0.101885,VALID,19.0666,VALID,138,VALID,0.253348,
2005-11-18, 02:01:00,VALID,916.599,VALID,0,VALID,100,VALID,-0.0849042,VALID,19.0631,VALID,168,VALID,0.664249,
2005-11-18, 02:02:00,VALID,916.595,VALID,0,VALID,100,VALID,-0.101885,VALID,19.0633,VALID,176,VALID,0.50327,
2005-11-18, 02:03:00,VALID,916.595,VALID,0,VALID,100,VALID,-0.0849042,VALID,19.0564,VALID,176,VALID,0.196057,
2005-11-18, 02:04:00,VALID,916.576,VALID,0,VALID,100,VALID,-0.0169808,VALID,19.0497,VALID,176,VALID,0.000976563,
2005-11-18, 02:05:00,VALID,916.563,VALID,0,VALID,100,VALID,0,VALID,19.049,VALID,176,VALID,0.480923,
2005-11-18, 02:06:00,VALID,916.531,VALID,0,VALID,100,VALID,0.0169808,VALID,19.0524,VALID,176,VALID,0.472222,
2005-11-18, 02:07:00,VALID,916.513,VALID,0,VALID,100,VALID,-0.0169808,VALID,19.049,VALID,176,VALID,0.401708,
2005-11-18, 02:08:00,VALID,916.517,VALID,0,VALID,100,VALID,0,VALID,19.049,VALID,174,VALID,0.885121,
2005-11-18, 02:09:00,VALID,916.529,VALID,0,VALID,100,VALID,0,VALID,19.0559,VALID,176,VALID,0.748197,
2005-11-18, 02:10:00,VALID,916.546,VALID,0,VALID,100,VALID,0,VALID,19.0594,VALID,176,VALID,0.267833,
2005-11-18, 02:11:00,VALID,916.56,VALID,0,VALID,100,VALID,0.0339617,VALID,19.0554,VALID,175,VALID,0.320494,
2005-11-18, 02:12:00,VALID,916.557,VALID,0,VALID,100,VALID,0.0169808,VALID,19.0527,VALID,174,VALID,0.370536,
2005-11-18, 02:13:00,VALID,916.561,VALID,0,VALID,100,VALID,0,VALID,19.0624,VALID,174,VALID,0.116235,
2005-11-18, 02:14:00,VALID,916.561,VALID,0,VALID,100,VALID,0,VALID,19.0619,VALID,182,VALID,0.223586,
2005-11-18, 02:15:00,VALID,916.567,VALID,0,VALID,100,VALID,0.0169808,VALID,19.0589,VALID,182,VALID,0.109003,
2005-11-18, 02:16:00,VALID,916.565,VALID,0,VALID,100,VALID,0,VALID,19.0654,VALID,66,VALID,0.73097,
2005-11-18, 02:17:00,VALID,916.585,VALID,0.2,VALID,100,VALID,0,VALID,19.0524,VALID,32,VALID,0.787695,
2005-11-18, 02:18:00,VALID,916.592,VALID,0,VALID,100,VALID,-0.0169808,VALID,19.0497,VALID,23,VALID,0.986374,
2005-11-18, 02:19:00,VALID,916.594,VALID,0,VALID,100,VALID,-0.0169808,VALID,19.0196,VALID,14,VALID,0.900521,
2005-11-18, 02:20:00,VALID,916.595,VALID,0,VALID,100,VALID,0.0509425,VALID,19.036,VALID,8,VALID,0.868075,
2005-11-18, 02:21:00,VALID,916.61,VALID,0,VALID,100,VALID,0.0169808,VALID,19.0328,VALID,5,VALID,0.618712,
2005-11-18, 02:22:00,VALID,916.611,VALID,0,VALID,100,VALID,0,VALID,19.0164,VALID,5,VALID,0.531441,
2005-11-18, 02:23:00,VALID,916.583,VALID,0,VALID,100,VALID,0.0339617,VALID,19.0261,VALID,5,VALID,0.275436,
2005-11-18, 02:24:00,VALID,916.554,VALID,0,VALID,100,VALID,0,VALID,19.0363,VALID,5,VALID,0.197917,
2005-11-18, 02:25:00,VALID,916.539,VALID,0,VALID,100,VALID,0.0339617,VALID,19.0261,VALID,26,VALID,0.331936,
2005-11-18, 02:26:00,VALID,916.53,VALID,0,VALID,100,VALID,0.0339617,VALID,19.0233,VALID,38,VALID,0.292873,
2005-11-18, 02:27:00,VALID,916.55,VALID,0,VALID,100,VALID,0,VALID,19.0261,VALID,38,VALID,0.365585,
2005-11-18, 02:28:00,VALID,916.574,VALID,0,VALID,100,VALID,0.0169808,VALID,19.0554,VALID,38,VALID,0.266016,
2005-11-18, 02:29:00,VALID,916.594,VALID,0.2,VALID,100,VALID,0.0169808,VALID,19.0619,VALID,38,VALID,0.325581,
2005-11-18, 02:30:00,VALID,916.592,VALID,0,VALID,100,VALID,0.0339617,VALID,19.0619,VALID,13,VALID,0.580669,
2005-11-18, 02:31:00,VALID,916.597,VALID,0,VALID,100,VALID,0,VALID,19.0554,VALID,6,VALID,0.5,
2005-11-18, 02:32:00,VALID,916.605,VALID,0,VALID,100,VALID,0.0339617,VALID,19.0582,VALID,6,VALID,0.295703,
2005-11-18, 02:33:00,VALID,916.621,VALID,0,VALID,100,VALID,0.0169808,VALID,19.045,VALID,6,VALID,0.165879,
2005-11-18, 02:34:00,VALID,916.645,VALID,0,VALID,100,VALID,-0.0169808,VALID,19.0725,VALID,6,VALID,0.168786,
2005-11-18, 02:35:00,VALID,916.677,VALID,0,VALID,100,VALID,-0.0509425,VALID,19.0795,VALID,6,VALID,0.255327,
2005-11-18, 02:36:00,VALID,916.675,VALID,0,VALID,100,VALID,-0.0679233,VALID,19.079,VALID,6,VALID,0.610263,
2005-11-18, 02:37:00,VALID,916.656,VALID,0,VALID,100,VALID,-0.0679233,VALID,19.0924,VALID,6,VALID,0.552641,
2005-11-18, 02:38:00,VALID,916.655,VALID,0,VALID,100,VALID,-0.0679233,VALID,19.0859,VALID,13,VALID,0.606831,
2005-11-18, 02:39:00,VALID,916.657,VALID,0,VALID,100,VALID,-0.0679233,VALID,19.0919,VALID,11,VALID,0.56577,
2005-11-18, 02:40:00,VALID,916.631,VALID,0.2,VALID,100,VALID,-0.0849042,VALID,19.0959,VALID,6,VALID,0.378551,
2005-11-18, 02:41:00,VALID,916.601,VALID,0,VALID,100,VALID,-0.0849042,VALID,19.0961,VALID,6,VALID,0.102834,
2005-11-18, 02:42:00,VALID,916.588,VALID,0,VALID,100,VALID,-0.0679233,VALID,19.0892,VALID,6,VALID,0,
2005-11-18, 02:43:00,VALID,916.584,VALID,0,VALID,100,VALID,-0.0679233,VALID,19.0857,VALID,6,VALID,0,
2005-11-18, 02:44:00,VALID,916.597,VALID,0,VALID,100,VALID,-0.0509425,VALID,19.1086,VALID,6,VALID,0.215511,
2005-11-18, 02:45:00,VALID,916.589,VALID,0,VALID,100,VALID,-0.0679233,VALID,19.115,VALID,6,VALID,0.327753,
2005-11-18, 02:46:00,VALID,916.574,VALID,0,VALID,100,VALID,-0.0849042,VALID,19.1347,VALID,6,VALID,0.158203,
2005-11-18, 02:47:00,VALID,916.557,VALID,0,VALID,100,VALID,-0.0849042,VALID,19.1277,VALID,6,VALID,0.279861,
2005-11-18, 02:48:00,VALID,916.544,VALID,0,VALID,100,VALID,-0.0509425,VALID,19.1347,VALID,9,VALID,0.417333,
2005-11-18, 02:49:00,VALID,916.548,VALID,0,VALID,100,VALID,-0.0169808,VALID,19.1113,VALID,30,VALID,0.543241,
2005-11-18, 02:50:00,VALID,916.528,VALID,0,VALID,100,VALID,-0.0849042,VALID,19.1083,VALID,30,VALID,0.511541,
2005-11-18, 02:51:00,VALID,916.522,VALID,0,VALID,100,VALID,-0.0339617,VALID,19.0822,VALID,30,VALID,0.479353,
2005-11-18, 02:52:00,VALID,916.517,VALID,0,VALID,100,VALID,-0.0679233,VALID,19.0855,VALID,30,VALID,0.202955,
2005-11-18, 02:53:00,VALID,916.505,VALID,0,VALID,100,VALID,-0.0509425,VALID,19.0825,VALID,30,VALID,0.0461648,
2005-11-18, 02:54:00,VALID,916.469,VALID,0,VALID,100,VALID,-0.0679233,VALID,19.0688,VALID,30,VALID,0,
2005-11-18, 02:55:00,VALID,916.448,VALID,0,VALID,100,VALID,-0.0339617,VALID,19.0788,VALID,30,VALID,0,
2005-11-18, 02:56:00,VALID,916.417,VALID,0.2,VALID,100,VALID,-0.0509425,VALID,19.0792,VALID,30,VALID,0,
2005-11-18, 02:57:00,VALID,916.401,VALID,0,VALID,100,VALID,-0.0509425,VALID,19.0755,VALID,30,VALID,0,
2005-11-18, 02:58:00,VALID,916.401,VALID,0,VALID,100,VALID,-0.0509425,VALID,19.0825,VALID,30,VALID,0,
2005-11-18, 02:59:00,VALID,916.381,VALID,0,VALID,100,VALID,-0.0679233,VALID,19.079,VALID,30,VALID,0,
2005-11-18, 03:00:00,VALID,916.39,VALID,0,VALID,100,VALID,-0.0169808,VALID,19.082,VALID,30,VALID,0,
2005-11-18, 03:01:00,VALID,916.38,VALID,0,VALID,100,VALID,-0.0509425,VALID,19.0792,VALID,30,VALID,0,
2005-11-18, 03:02:00,VALID,916.362,VALID,0,VALID,100,VALID,-0.0339617,VALID,19.0825,VALID,30,VALID,0.00639205,
2005-11-18, 03:03:00,VALID,916.365,VALID,0,VALID,100,VALID,-0.0339617,VALID,19.0822,VALID,30,VALID,0.0667614,
2005-11-18, 03:04:00,VALID,916.359,VALID,0,VALID,100,VALID,-0.0849042,VALID,19.0827,VALID,30,VALID,0.0136265,
2005-11-18, 03:05:00,VALID,916.347,VALID,0,VALID,100,VALID,-0.0679233,VALID,19.0566,VALID,30,VALID,0,
2005-11-18, 03:06:00,VALID,916.331,VALID,0,VALID,100,VALID,-0.0509425,VALID,19.0305,VALID,37,VALID,0.231001,
2005-11-18, 03:07:00,VALID,916.312,VALID,0,VALID,100,VALID,-0.0849042,VALID,19.0245,VALID,60,VALID,0.459201,
2005-11-18, 03:08:00,VALID,916.301,VALID,0,VALID,100,VALID,-0.0509425,VALID,19.0114,VALID,60,VALID,0.433117,
2005-11-18, 03:09:00,VALID,916.296,VALID,0,VALID,100,VALID,-0.0849042,VALID,18.9851,VALID,60,VALID,0.314986,
2005-11-18, 03:10:00,VALID,916.289,VALID,0,VALID,100,VALID,-0.101885,VALID,18.9892,VALID,60,VALID,0.0567708,
2005-11-18, 03:11:00,VALID,916.294,VALID,0,VALID,100,VALID,-0.101885,VALID,18.9823,VALID,60,VALID,0.016183,
2005-11-18, 03:12:00,VALID,916.296,VALID,0,VALID,100,VALID,-0.0849042,VALID,18.989,VALID,60,VALID,0.0422585,
2005-11-18, 03:13:00,VALID,916.303,VALID,0,VALID,100,VALID,-0.0339617,VALID,18.989,VALID,18,VALID,0.254542,
2005-11-18, 03:14:00,VALID,916.292,VALID,0,VALID,100,VALID,-0.101885,VALID,18.993,VALID,359,VALID,0.308178,
2005-11-18, 03:15:00,VALID,916.288,VALID,0,VALID,100,VALID,-0.0509425,VALID,18.9957,VALID,357,VALID,0.112424,
2005-11-18, 03:16:00,VALID,916.274,VALID,0,VALID,100,VALID,-0.0679233,VALID,18.9989,VALID,357,VALID,0.015625,
2005-11-18, 03:17:00,VALID,916.254,VALID,0,VALID,100,VALID,-0.0849042,VALID,19.0123,VALID,357,VALID,0,
2005-11-18, 03:18:00,VALID,916.243,VALID,0,VALID,100,VALID,-0.101885,VALID,18.989,VALID,357,VALID,0,
2005-11-18, 03:19:00,VALID,916.236,VALID,0,VALID,100,VALID,-0.0339617,VALID,18.995,VALID,357,VALID,0,
2005-11-18, 03:20:00,VALID,916.232,VALID,0,VALID,100,VALID,0.0339617,VALID,18.991,VALID,357,VALID,0,
2005-11-18, 03:21:00,VALID,916.233,VALID,0,VALID,100,VALID,0.0169808,VALID,18.9846,VALID,357,VALID,0,
2005-11-18, 03:22:00,VALID,916.23,VALID,0,VALID,100,VALID,0.0339617,VALID,18.9878,VALID,357,VALID,0,
2005-11-18, 03:23:00,VALID,916.227,VALID,0,VALID,100,VALID,0.0169808,VALID,18.9848,VALID,357,VALID,0,
2005-11-18, 03:24:00,VALID,916.229,VALID,0,VALID,100,VALID,0.0169808,VALID,18.9677,VALID,357,VALID,0,
2005-11-18, 03:25:00,VALID,916.236,VALID,0,VALID,100,VALID,0.0509425,VALID,18.9781,VALID,357,VALID,0,
2005-11-18, 03:26:00,VALID,916.247,VALID,0,VALID,100,VALID,0.0339617,VALID,18.9813,VALID,357,VALID,0,
2005-11-18, 03:27:00,VALID,916.247,VALID,0,VALID,100,VALID,0.0509425,VALID,18.965,VALID,357,VALID,0.0065696,
2005-11-18, 03:28:00,VALID,916.241,VALID,0,VALID,100,VALID,0.0339617,VALID,18.9682,VALID,357,VALID,0.34654,
2005-11-18, 03:29:01,VALID,916.217,VALID,0,VALID,100,VALID,0,VALID,18.9622,VALID,28,VALID,0.499628,
2005-11-18, 03:30:00,VALID,916.215,VALID,0,VALID,100,VALID,0,VALID,18.9525,VALID,40,VALID,0.521151,
2005-11-18, 03:31:00,VALID,916.193,VALID,0,VALID,100,VALID,0.0339617,VALID,18.9329,VALID,40,VALID,0.519531,
2005-11-18, 03:32:00,VALID,916.186,VALID,0,VALID,100,VALID,0.0169808,VALID,18.9237,VALID,40,VALID,0.422238,
2005-11-18, 03:33:00,VALID,916.175,VALID,0,VALID,100,VALID,0.0339617,VALID,18.9234,VALID,40,VALID,0.404647,
2005-11-18, 03:34:01,VALID,916.191,VALID,0,VALID,100,VALID,0.0679233,VALID,18.9135,VALID,40,VALID,0.341388,
2005-11-18, 03:35:00,VALID,916.177,VALID,0,VALID,100,VALID,0.0509425,VALID,18.9259,VALID,40,VALID,0.322266,
2005-11-18, 03:36:00,VALID,916.19,VALID,0,VALID,100,VALID,0.0849042,VALID,18.9197,VALID,40,VALID,0.236607,
2005-11-18, 03:37:01,VALID,916.205,VALID,0,VALID,100,VALID,0.101885,VALID,18.9324,VALID,40,VALID,0.171303,
2005-11-18, 03:38:00,VALID,916.208,VALID,0,VALID,100,VALID,0.0679233,VALID,18.9257,VALID,40,VALID,0.27439,
2005-11-18, 03:39:00,VALID,916.216,VALID,0,VALID,100,VALID,0.0849042,VALID,18.919,VALID,40,VALID,0.344512,
2005-11-18, 03:40:01,VALID,916.212,VALID,0,VALID,100,VALID,0.0509425,VALID,18.9359,VALID,40,VALID,0.216704,
2005-11-18, 03:41:00,VALID,916.204,VALID,0,VALID,100,VALID,0.0509425,VALID,18.9225,VALID,40,VALID,0.198611,